Location: Banff
(51.1667°N, 115.5667°W)
Time: 05:37:39
(UTC+00:00)

S-56A Canister/Altair - Pass Details

Date: 05 December 2020
Orbit: 633 x 2499 km, 38.9° (Epoch: 21 January)

Event Time Altitude Azimuth Distance (km) Brightness Sun altitude
Rises 04:27:36 0° 262° (W) 5,607 12.6 -44.2°
Reaches altitude 10° 04:32:00 10° 255° (WSW) 4,331 11.7 -44.9°
Enters shadow 04:38:28 30° 229° (SW) 2,626 10.2 -45.8°
Maximum altitude 04:41:40 36° 195° (SSW) 2,159 - -46.2°
Drops below altitude 10° 04:48:26 10° 132° (SE) 3,010 - -47.2°
Sets 04:50:57 0° 123° (ESE) 3,749 - -47.6°
